User: anonymous   Login
Location: Unspecified
(0.0000°N, 0.0000°E)
Time: 16:40:48
(UTC+00:00)
Language:

USA 139 - Orbit

View from above orbital plane
View from above orbital plane
View from above satellite
View from above satellite

Ground track
Ground track

The orbit data is extracted from the following two-line orbital elements,

1 25336U 98029A   16279.03103943 0.00000000  00000-0  00000-0 0    08
2 25336   9.1206 358.8584 0037278 232.5564 127.1131  1.00270000    00
Epoch (UTC): 05 October 2016 00:44:41
Eccentricity: 0.0037278
inclination: 9.1206°
perigee height: 35629 km
apogee height: 35944 km
right ascension of ascending node: 358.8584°
argument of perigee: 232.5564°
revolutions per day: 1.00270000
mean anomaly at epoch: 127.1131°
orbit number at epoch: 0

The dashed part of the orbit path shows where the satellite is in the earth's shadow,  

DLR